AWC940 EDDH-EGKK

Flight info

Callsign AWC940
Flight time N/A
Altitude 30000
Route WSN4B/23 WSN N125 EKNON DCT VALKO DCT GALSO Q63 ARREK Y4 TEBRA
Aircraft A320/M-SDFGHIJ1RWXYZ/LB1

Departure

Time 2026-05-01 14:29
Airport Hamburg Helmut Schmidt Airport (EDDH)

Arrival

Time N/A
Airport London Gatwick Airport (EGKK)
Time Latitude Longitude Altitude Speed Heading
2026-05-01 14:07 53.62891 10.00214 48 ft 0 kts 122°
2026-05-01 14:07 53.62891 10.00215 49 ft 0 kts 122°
2026-05-01 14:08 53.62891 10.00214 48 ft 0 kts 122°
2026-05-01 14:18 53.62894 10.00208 48 ft 2 kts 120°
2026-05-01 14:19 53.62905 10.00177 47 ft 2 kts 122°
2026-05-01 14:19 53.62914 10.00153 48 ft 2 kts 122°
2026-05-01 14:19 53.62923 10.00130 44 ft 2 kts 116°
2026-05-01 14:19 53.62922 10.00106 45 ft 2 kts 32°
2026-05-01 14:20 53.62909 10.00091 43 ft 2 kts 33°
2026-05-01 14:20 53.62929 10.00112 48 ft 2 kts 33°
2026-05-01 14:20 53.62930 10.00114 48 ft 0 kts 33°
2026-05-01 14:22 53.62939 10.00124 48 ft 4 kts 33°
2026-05-01 14:23 53.62972 10.00138 48 ft 7 kts 360°
2026-05-01 14:23 53.63029 10.00145 48 ft 9 kts 18°
2026-05-01 14:23 53.63086 10.00193 48 ft 9 kts 11°
2026-05-01 14:23 53.63152 10.00187 48 ft 11 kts 356°
2026-05-01 14:24 53.63234 10.00177 48 ft 13 kts 355°
2026-05-01 14:24 53.63316 10.00167 45 ft 11 kts 355°
2026-05-01 14:24 53.63381 10.00159 48 ft 8 kts 356°
2026-05-01 14:24 53.63436 10.00153 48 ft 8 kts 356°
2026-05-01 14:25 53.63499 10.00144 48 ft 10 kts 350°
2026-05-01 14:25 53.63559 10.00085 51 ft 9 kts 315°
2026-05-01 14:25 53.63605 10.00016 52 ft 7 kts 317°
2026-05-01 14:25 53.63601 9.99960 52 ft 4 kts 230°
2026-05-01 14:26 53.63600 9.99958 49 ft 0 kts 230°
2026-05-01 14:28 53.63596 9.99949 50 ft 6 kts 230°
2026-05-01 14:28 53.63419 9.99596 47 ft 76 kts 230°
2026-05-01 14:28 53.62947 9.98638 45 ft 134 kts 230°
2026-05-01 14:29 53.62278 9.97238 227 ft 159 kts 230°
2026-05-01 14:29 53.61586 9.95805 947 ft 157 kts 226°
2026-05-01 14:30 53.59365 9.91302 2432 ft 193 kts 229°
2026-05-01 14:30 53.58770 9.90098 2740 ft 210 kts 227°
2026-05-01 14:30 53.57814 9.88154 3428 ft 218 kts 228°
2026-05-01 14:31 53.56204 9.83702 4876 ft 242 kts 246°
2026-05-01 14:31 53.55587 9.80923 5346 ft 263 kts 247°
2026-05-01 14:31 53.54955 9.77990 6165 ft 269 kts 247°
2026-05-01 14:31 53.54322 9.75036 7044 ft 273 kts 247°
2026-05-01 14:32 53.53669 9.72011 7888 ft 276 kts 247°
2026-05-01 14:32 53.53007 9.68957 8741 ft 280 kts 246°
2026-05-01 14:32 53.52333 9.65860 9586 ft 284 kts 246°
2026-05-01 14:32 53.51644 9.62721 10401 ft 288 kts 246°
2026-05-01 14:33 53.50923 9.59466 10781 ft 308 kts 246°
2026-05-01 14:33 53.50142 9.55980 10992 ft 331 kts 246°
2026-05-01 14:33 53.49308 9.52259 11389 ft 346 kts 246°
2026-05-01 14:33 53.48456 9.48429 12064 ft 351 kts 246°
2026-05-01 14:34 53.47598 9.44561 12752 ft 355 kts 246°
2026-05-01 14:34 53.46740 9.40701 13448 ft 359 kts 246°
2026-05-01 14:34 53.45865 9.36760 14142 ft 362 kts 246°
2026-05-01 14:34 53.44979 9.32782 14747 ft 366 kts 246°
2026-05-01 14:35 53.44079 9.28769 15351 ft 369 kts 247°
2026-05-01 14:35 53.43170 9.24726 15938 ft 372 kts 247°
2026-05-01 14:35 53.42248 9.20636 16527 ft 375 kts 247°
2026-05-01 14:35 53.41319 9.16520 17126 ft 379 kts 247°
2026-05-01 14:36 53.40378 9.12370 17743 ft 382 kts 247°
2026-05-01 14:36 53.39428 9.08189 18366 ft 385 kts 247°
2026-05-01 14:36 53.38470 9.03971 18955 ft 389 kts 247°
2026-05-01 14:36 53.37504 8.99713 19528 ft 392 kts 247°
2026-05-01 14:37 53.36530 8.95431 20097 ft 395 kts 247°
2026-05-01 14:37 53.35560 8.91168 20666 ft 398 kts 247°
2026-05-01 14:37 53.34569 8.86819 21216 ft 402 kts 247°
2026-05-01 14:37 53.33579 8.82424 21737 ft 405 kts 248°
2026-05-01 14:38 53.32587 8.77987 22253 ft 408 kts 247°
2026-05-01 14:38 53.31535 8.73551 22745 ft 411 kts 246°
2026-05-01 14:38 53.30426 8.69117 23228 ft 414 kts 245°
2026-05-01 14:38 53.29281 8.64674 23714 ft 417 kts 245°
2026-05-01 14:39 53.28120 8.60197 24137 ft 420 kts 245°
2026-05-01 14:39 53.26957 8.55693 24529 ft 423 kts 245°
2026-05-01 14:39 53.25799 8.51168 24931 ft 425 kts 245°
2026-05-01 14:39 53.24639 8.46610 25321 ft 427 kts 246°
2026-05-01 14:40 53.23485 8.42073 25682 ft 430 kts 246°
2026-05-01 14:40 53.22314 8.37475 26048 ft 432 kts 246°
2026-05-01 14:40 53.21128 8.32838 26407 ft 435 kts 246°
2026-05-01 14:40 53.19937 8.28193 26760 ft 438 kts 246°
2026-05-01 14:41 53.18731 8.23498 27106 ft 440 kts 246°
2026-05-01 14:41 53.17520 8.18794 27456 ft 443 kts 246°
2026-05-01 14:41 53.16300 8.14058 27809 ft 445 kts 246°
2026-05-01 14:41 53.15074 8.09301 28156 ft 448 kts 246°
2026-05-01 14:42 53.13837 8.04518 28494 ft 450 kts 246°
2026-05-01 14:42 53.12591 7.99700 28828 ft 453 kts 246°
2026-05-01 14:42 53.11354 7.94935 29141 ft 456 kts 246°
2026-05-01 14:42 53.10085 7.90074 29516 ft 457 kts 246°
2026-05-01 14:43 53.08817 7.85223 30015 ft 455 kts 247°
2026-05-01 14:43 53.07549 7.80386 30264 ft 455 kts 247°
2026-05-01 14:43 53.06276 7.75544 30299 ft 461 kts 247°
2026-05-01 14:44 53.03668 7.65625 30288 ft 472 kts 247°
2026-05-01 14:44 52.99688 7.50610 30278 ft 473 kts 246°
2026-05-01 14:45 52.95705 7.35648 30277 ft 474 kts 246°
2026-05-01 14:46 52.93033 7.25642 30277 ft 474 kts 246°
2026-05-01 14:46 52.89004 7.10683 30276 ft 473 kts 246°
2026-05-01 14:47 52.86311 7.00740 30285 ft 473 kts 246°
2026-05-01 14:48 52.82279 6.85941 30288 ft 471 kts 246°
2026-05-01 14:48 52.78813 6.73263 30293 ft 470 kts 246°
2026-05-01 14:49 52.73398 6.53650 30290 ft 469 kts 246°
2026-05-01 14:50 52.67975 6.34171 30281 ft 468 kts 245°
2026-05-01 14:51 52.65084 6.23827 30278 ft 467 kts 245°
2026-05-01 14:52 52.60994 6.09234 30268 ft 466 kts 245°
2026-05-01 14:53 52.56878 5.94738 30260 ft 466 kts 245°
2026-05-01 14:53 52.54151 5.85148 30256 ft 466 kts 245°
2026-05-01 14:54 52.51394 5.75519 30260 ft 466 kts 244°
2026-05-01 14:54 52.48638 5.65909 30262 ft 465 kts 244°
2026-05-01 14:55 52.45873 5.56312 30261 ft 465 kts 244°
2026-05-01 14:55 52.43102 5.46736 30257 ft 464 kts 244°
2026-05-01 14:56 52.40326 5.37170 30255 ft 464 kts 244°
2026-05-01 14:56 52.37579 5.27739 30245 ft 464 kts 244°
2026-05-01 14:57 52.34814 5.18292 30243 ft 463 kts 244°
2026-05-01 14:57 52.30620 5.04046 30248 ft 462 kts 243°
2026-05-01 14:58 52.27812 4.94556 30252 ft 462 kts 243°
2026-05-01 14:58 52.25022 4.85152 30251 ft 461 kts 243°
2026-05-01 14:59 52.22696 4.77333 30252 ft 461 kts 243°
2026-05-01 14:59 52.19783 4.67567 30242 ft 461 kts 243°
2026-05-01 15:00 52.15545 4.53507 30237 ft 461 kts 243°
2026-05-01 15:01 52.12717 4.44132 30203 ft 461 kts 243°
2026-05-01 15:01 52.09872 4.34777 30217 ft 461 kts 242°
2026-05-01 15:02 52.07019 4.25407 30220 ft 461 kts 242°
2026-05-01 15:02 52.04185 4.16112 30224 ft 461 kts 242°
2026-05-01 15:03 52.01324 4.06759 30224 ft 461 kts 242°
2026-05-01 15:03 51.98453 3.97433 30226 ft 461 kts 242°
2026-05-01 15:04 51.95576 3.88128 30228 ft 461 kts 242°
2026-05-01 15:04 51.92706 3.78882 30232 ft 460 kts 242°
2026-05-01 15:05 51.89813 3.69605 30231 ft 460 kts 241°
2026-05-01 15:05 51.86930 3.60401 30230 ft 460 kts 241°
2026-05-01 15:06 51.84026 3.51144 30222 ft 460 kts 241°
2026-05-01 15:06 51.81128 3.41934 30223 ft 460 kts 241°
2026-05-01 15:07 51.78237 3.32784 30235 ft 459 kts 241°
2026-05-01 15:07 51.75315 3.23578 30218 ft 459 kts 240°
2026-05-01 15:08 51.73041 3.13976 30214 ft 463 kts 256°
2026-05-01 15:08 51.72115 3.03669 30215 ft 465 kts 259°
2026-05-01 15:09 51.71236 2.93378 30215 ft 465 kts 259°
2026-05-01 15:09 51.70322 2.83019 30207 ft 464 kts 259°
2026-05-01 15:10 51.69597 2.74951 30206 ft 464 kts 259°
2026-05-01 15:10 51.68214 2.59500 30209 ft 464 kts 259°
2026-05-01 15:11 51.66825 2.44061 30207 ft 464 kts 258°
2026-05-01 15:12 51.65885 2.33781 30209 ft 464 kts 258°
2026-05-01 15:12 51.64446 2.18326 30209 ft 464 kts 258°
2026-05-01 15:14 51.62040 1.92688 28822 ft 465 kts 258°
2026-05-01 15:14 51.61443 1.87653 27865 ft 458 kts 250°
2026-05-01 15:14 51.59183 1.80038 26186 ft 448 kts 230°
2026-05-01 15:15 51.54596 1.71415 25088 ft 419 kts 225°
2026-05-01 15:15 51.51456 1.65747 24887 ft 392 kts 224°
2026-05-01 15:16 51.48309 1.58513 23271 ft 408 kts 243°
2026-05-01 15:16 51.46272 1.49863 21073 ft 421 kts 245°
2026-05-01 15:17 51.44179 1.41060 18886 ft 426 kts 240°
2026-05-01 15:18 51.38120 1.31161 15620 ft 414 kts 214°
2026-05-01 15:18 51.35822 1.28452 14798 ft 408 kts 214°
2026-05-01 15:19 51.29140 1.20549 13247 ft 376 kts 214°
2026-05-01 15:19 51.25130 1.15809 12986 ft 341 kts 214°
2026-05-01 15:19 51.23282 1.13635 12859 ft 326 kts 214°
2026-05-01 15:20 51.19762 1.09512 12602 ft 296 kts 214°
2026-05-01 15:20 51.18130 1.07609 12408 ft 286 kts 214°
2026-05-01 15:20 51.16536 1.05749 12153 ft 282 kts 214°
2026-05-01 15:21 51.14978 1.03932 11839 ft 280 kts 214°
2026-05-01 15:21 51.13402 1.02096 11505 ft 279 kts 214°
2026-05-01 15:21 51.11830 1.00267 11196 ft 278 kts 214°
2026-05-01 15:21 51.10265 0.98445 10872 ft 277 kts 214°
2026-05-01 15:22 51.07155 0.94821 10197 ft 277 kts 215°
2026-05-01 15:22 51.05773 0.92711 9895 ft 277 kts 230°
2026-05-01 15:22 51.04797 0.90069 9563 ft 278 kts 242°
2026-05-01 15:23 51.03981 0.87282 9313 ft 275 kts 242°
2026-05-01 15:23 51.03159 0.84511 9154 ft 276 kts 241°
2026-05-01 15:23 51.02334 0.81751 8966 ft 276 kts 242°
2026-05-01 15:23 51.01519 0.79038 8787 ft 274 kts 241°
2026-05-01 15:24 51.00696 0.76299 8602 ft 274 kts 241°
2026-05-01 15:24 50.99877 0.73575 8421 ft 273 kts 241°
2026-05-01 15:24 50.99060 0.70863 8240 ft 272 kts 241°
2026-05-01 15:24 50.98248 0.68163 8057 ft 270 kts 241°
2026-05-01 15:25 50.97436 0.65459 7875 ft 270 kts 241°
2026-05-01 15:25 50.96629 0.62776 7692 ft 269 kts 241°
2026-05-01 15:25 50.95837 0.60145 7517 ft 267 kts 241°
2026-05-01 15:25 50.95036 0.57486 7338 ft 266 kts 241°
2026-05-01 15:26 50.94233 0.54834 7158 ft 265 kts 241°
2026-05-01 15:26 50.93428 0.52183 6781 ft 266 kts 241°
2026-05-01 15:26 50.92631 0.49547 6571 ft 263 kts 242°
2026-05-01 15:26 50.91894 0.46905 6385 ft 261 kts 249°
2026-05-01 15:27 50.91590 0.44115 6206 ft 259 kts 265°
2026-05-01 15:27 50.91787 0.41293 6034 ft 257 kts 281°
2026-05-01 15:27 50.92285 0.38597 5867 ft 252 kts 282°
2026-05-01 15:28 50.93250 0.33336 5525 ft 242 kts 281°
2026-05-01 15:28 50.93708 0.30834 5364 ft 235 kts 282°
2026-05-01 15:28 50.94158 0.28383 5208 ft 228 kts 282°
2026-05-01 15:29 50.95622 0.24017 4906 ft 225 kts 304°
2026-05-01 15:29 50.96589 0.22059 4752 ft 225 kts 303°
2026-05-01 15:29 50.98498 0.18174 4449 ft 224 kts 303°
2026-05-01 15:30 51.00468 0.14378 4135 ft 224 kts 314°
2026-05-01 15:31 51.06455 0.12048 3325 ft 231 kts
2026-05-01 15:31 51.09634 0.12357 2895 ft 228 kts
2026-05-01 15:32 51.12832 0.12661 2400 ft 229 kts
2026-05-01 15:32 51.15992 0.12900 2114 ft 226 kts 351°
2026-05-01 15:33 51.18513 0.08331 2011 ft 185 kts 259°
2026-05-01 15:34 51.17736 0.02392 2013 ft 183 kts 253°